Activity Log for Sep, 08 2019

Back to Activity Log Search


Incident Time Nature Address
19F110450 00:03:03 46 DOMESTIC 24XX SOUTHWAYNE AVE
19F110451 00:03:53 30 TRAFFIC STOP WINCHESTER RD & AIRPORT EXPRESSWAY
19F110452 00:06:50 46 DOMESTIC XX E MAIN ST
19F110476 00:07:43 44LP 13XX THIRD ST
19F110453 00:10:03 30 TRAFFIC STOP S CALHOUN ST & N SEMINOLE CIR
19F110454 00:10:05 48,36 ST JOE CENTER RD & YMCA PARK BLVD
19F110455 00:10:52 30 TRAFFIC STOP OLIVER ST & MCKINNIE AVE
19F110456 00:11:21 41,36 HALE AVE & RIEDMILLER AVE
19F110457 00:12:08 48,36 12XX E DUPONT RD
19F110460 00:16:06 ATL 49XX S ANTHONY BLVD
19F110459 00:16:18 44LP 4XX ECKART ST
19F110458 00:17:00 30 TRAFFIC STOP S ANTHONY BLVD & OXFORD ST
19F110461 00:21:23 30 TRAFFIC STOP OXFORD ST & S ANTHONY BLVD
19F110462 00:23:44 30 TRAFFIC STOP 7XX N COLISEUM BLVD
19F110463 00:24:02 43 DISTURBANCE 18XX CORONET DR
19F110482 00:24:50 44LM 33XX ACADEMIC PL
19F110472 00:29:09 44LP W MAIN ST & UNION ST
19F110464 00:30:06 30 TRAFFIC STOP W SUPERIOR ST & VAN BUREN ST
19F110466 00:30:45 113 SHOTS FIRED 14XX N HARRISON ST
19F110465 00:31:02 30 TRAFFIC STOP MAPLECREST RD & BOHDE TRL
19F110467 00:32:07 30 TRAFFIC STOP W STATE BLVD & SHERMAN BLVD
19F110468 00:34:09 48 SUSPICIOUS S HANNA ST & MCKINNIE AVE
19F110469 00:39:32 30 TRAFFIC STOP S CALHOUN ST & E LEWIS ST
19F110488 00:39:36 44LP 32XX SENATE AVE
19F110470 00:42:15 113 SHOTS FIRED FLEETWOOD AVE & RAYMOND AVE
19F110471 00:42:57 25HS HIT SKIP FAIRFIELD AVE & TAYLOR ST
19F110477 00:48:35 63 CONTACT 26XX KENWOOD AVE
19F110474 00:48:56 46,96 3XX E SUPERIOR ST
19F110475 00:49:39 911 HANG UP 42XX W JEFFERSON BLVD
19F110478 00:52:09 48 SUSPICIOUS 6XX E JEFFERSON BLVD
19F110486 00:53:34 44LP 6XX ARCHER AVE
19F110479 00:54:38 43 DISTURBANCE 2XX W DEWALD ST
19F110480 00:57:43 23 VANDALISM 13XX FAWN DR
19F110481 00:58:54 46,96 21XX CHARTWELL DR
19F110485 01:04:45 911 HANG UP 12XX NEW ENGLAND DR
19F110483 01:05:20 30 TRAFFIC STOP 45XX WOODWAY DR
19F110487 01:07:23 911 HANG UP 30XX ALEXANDER ST
19F110484 01:07:51 55 FIGHT 1XX COUNTRY FOREST DR
19F110489 01:15:27 63 CONTACT 2XX NORTHEAST DR
19F110490 01:21:37 30 TRAFFIC STOP 3XX W BAKER ST
19F110491 01:21:41 43 DISTURBANCE 30XX MCDONALD ST
19F110492 01:27:24 43 DISTURBANCE 16XX E PONTIAC ST
19F110493 01:30:51 44LP 3XX KILLEA ST
19F110494 01:38:24 43 DISTURBANCE 39XX TAYLOR ST
19F110495 01:41:11 30 TRAFFIC STOP N CLINTON ST & E FOURTH ST
19F110496 01:41:33 96JO 8XX S LAFAYETTE ST
19F110497 01:43:47 55 FIGHT 17XX APPLE GLEN BLVD
19F110498 01:46:35 25HS HIT SKIP SCHICK ST & E WASHINGTON BLVD
19F110499 01:57:14 30 TRAFFIC STOP E PONTIAC ST & S HANNA ST
19F110512 02:00:05 44LP 29XX LILLIE ST
19F110500 02:00:30 30 TRAFFIC STOP S BARR ST & E JEFFERSON BLVD
19F110502 02:03:01 46,62 33XX REED ST
19F110501 02:03:16 30 TRAFFIC STOP SHERMAN BLVD & GOSHEN AVE
19F110503 02:06:10 46 DOMESTIC 22XX BEACON ST
19F110504 02:09:07 30 TRAFFIC STOP E LEWIS ST & S HANNA ST
19F110505 02:10:41 48,36 24XX ST LOUIS AVE
19F110506 02:12:44 65T SUICIDE THR 41XX HESSEN CASSEL RD
19F110507 02:15:53 48,36 34XX SHERMAN BLVD
19F110509 02:18:58 55,62 22XX HOLTON AVE
19F110508 02:19:20 30 TRAFFIC STOP 13XX E CREIGHTON AVE
19F110515 02:20:31 44LP 29XX STARDALE DR
19F110510 02:24:52 63 CONTACT 37XX E WASHINGTON BLVD
19F110511 02:27:01 46 DOMESTIC 20XX CHARTWELL DR
19F110513 02:33:11 55 FIGHT 3XX W JEFFERSON BLVD
19F110514 02:34:53 911 HANG UP 28XX PARNELL AVE
19F110516 02:41:36 30 TRAFFIC STOP S ANTHONY BLVD & OXFORD ST
19F110517 02:42:27 30 TRAFFIC STOP E RUDISILL BLVD & S LAFAYETTE ST
19F110520 02:50:51 40A AUDIBLE 76XX PATRIOT XING
19F110518 02:54:52 30 TRAFFIC STOP S ANTHONY BLVD & W COLONIAL AVE
19F110519 02:55:10 30 TRAFFIC STOP SPY RUN AVE & RUTH ST
19F110522 02:58:46 44LM 29XX LILLIE ST
19F110521 03:02:55 30 TRAFFIC STOP E PETTIT AVE & WERLING DR
19F110525 03:04:59 44 NUISANCE 37XX E WASHINGTON BLVD
19F110524 03:09:58 1 MEET 8XX S LAFAYETTE ST
19F110526 03:14:49 51JO 28XX E STATE BLVD
19F110523 03:15:14 27 RECKLESS DRI LIMA RD & LEY RD
19F110527 03:16:24 30 TRAFFIC STOP 29XX GOSHEN RD
19F110528 03:26:12 48,36 E PONTIAC ST & S ANTHONY BLVD
19F110529 03:30:17 30 TRAFFIC STOP LIMA RD & LEY RD
19F110530 03:30:42 113 SHOTS FIRED W CREIGHTON AVE & FAIRFIELD AVE
19F110531 03:30:54 103 UNWANTED 22XX FAIRFIELD AVE
19F110532 03:32:05 37 PARKING VIOL E STATE BLVD & REED RD
19F110533 03:45:03 43 DISTURBANCE 17XX ROSEMONT DR
19F110534 03:51:31 30 TRAFFIC STOP MAPLECREST RD & LAKE AVE
19F110535 03:52:07 30 TRAFFIC STOP 14XX W COLISEUM BLVD
19F110536 03:56:02 113 SHOTS FIRED SMITH ST & E PETTIT AVE
19F110537 03:59:23 911 HANG UP 20XX BROADWAY
19F110538 04:06:02 30 TRAFFIC STOP LIMA RD & W COLISEUM BLVD
19F110539 04:06:18 46,96 40XX SMITH ST
19F110541 04:18:10 44LP 35XX REED ST
19F110540 04:19:13 30 TRAFFIC STOP FAIRFIELD AVE & W FAIRFAX AVE
19F110542 04:24:33 58 SHOOTING 7XX BROADWAY
19F110543 04:32:32 65A SUICIDE ATT 57XX WILKIE DR
19F110544 04:35:30 48 SUSPICIOUS 57XX COVENTRY LN
19F110545 04:42:41 51,ATTEMPTED 6XX STURGIS ST
19F110546 04:49:49 46 DOMESTIC 8XX W DEWALD ST
19F110548 04:55:42 43 DISTURBANCE 29XX LILLIE ST
19F110547 04:59:14 96IP 75XX BLUFFTON RD
19F110549 05:00:20 43 DISTURBANCE 20XX BROADWAY
19F110550 05:11:43 15 ASSIST 65XX GEORGETOWN LN
19F110551 05:17:38 48,36 27XX BROADWAY
19F110552 05:27:41 113 SHOTS FIRED 9XX OAKLAWN CT
19F110553 05:29:11 46 DOMESTIC 74XX BEATY AVE
19F110554 05:36:13 911 HANG UP 57XX CHALLENGER PKWY
19F110555 05:46:55 20 PROBLEM UNK 63XX ALVAREZ DR
19F110556 06:02:03 46 DOMESTIC 79XX SERENITY DR
19F110558 06:02:57 15 ASSIST S BARR ST & E LEWIS ST
19F110557 06:15:16 111D DOG MAPLECREST RD & LAKE AVE
19F110559 06:32:20 40A AUDIBLE 75XX MAPLECREST RD
19F110560 06:40:04 30 TRAFFIC STOP S ANTHONY BLVD & CAPITOL AVE
19F110562 07:05:42 37 PARKING VIOL 62XX MONARCH DR
19F110561 07:07:26 30 TRAFFIC STOP S CALHOUN ST & E PAULDING RD
19F110565 07:22:43 15,85 ASST AT O 19XX WAYSIDE DR
19F110563 07:28:40 103 UNWANTED 5XX W JEFFERSON BLVD
19F110564 07:28:50 43 DISTURBANCE 50XX MARTINIQUE RD
19F110583 07:51:25 37 PARKING VIOL 13XX LATIMER CT
19F110566 07:53:33 113 SHOTS FIRED SMITH ST & E PETTIT AVE
19F110568 07:55:57 66 72 HOUR 79XX W JEFFERSON BLVD
19F110567 07:56:02 62 PARTY ARMED 48XX OLIVER ST
19F110569 08:12:18 40A AUDIBLE 36XX LIMA RD
19F110570 08:15:16 66V MENTAL VIOL 27XX W WASHINGTON CENTER RD
19F110571 08:25:29 40A AUDIBLE 11XX W FOSTER PKWY
19F110573 08:30:36 50 BURGLARY 100XX LIMA RD
19F110572 08:41:03 48,35 74XX LAKERIDGE DR
19F110574 08:45:40 63 CONTACT 4XX E DUPONT RD
19F110575 08:55:00 50,ATTEMPTED 22XX LONGLEAF DR
19F110577 09:08:14 51 THEFT 60XX ST JOE RD
19F110576 09:09:39 30 TRAFFIC STOP HARRIS RD & W COLISEUM BLVD
19F110579 09:19:29 48,36 SIDNEY ST & WINCH ST
19F110578 09:19:41 39 STOLEN VEHIC 8XX THIRD ST
19F110580 09:25:10 39 STOLEN VEHIC 2XX E TILLMAN RD
19F110581 09:25:30 66 MENTALLY ILL 29XX WESTBROOK DR
19F110582 09:27:07 23 VANDALISM 24XX GAY ST
19F110584 09:42:56 23,35 VAND VEH 41XX S ANTHONY BLVD
19F110585 09:51:05 20 PROBLEM UNK 31XX WELLS ST
19F110586 09:51:47 43 DISTURBANCE 57XX CHALLENGER PKWY
19F110587 09:59:25 40A AUDIBLE 34XX CENTENNIAL DR
19F110588 10:07:28 65T SUICIDE THR 30XX W COLISEUM BLVD
19F110593 10:07:45 22RC RECOVERY 27XX ENFIELD CV
19F110589 10:07:49 40A AUDIBLE 14XX W MAIN ST
19F110590 10:11:00 51 THEFT 2XX E TILLMAN RD
19F110591 10:11:13 51 THEFT 2XX E TILLMAN RD
19F110592 10:18:02 23,35 VAND VEH 37XX PLAZA DR
19F110594 10:30:19 63 CONTACT 9XX BAXTER ST
19F110595 10:37:03 40A AUDIBLE 34XX INDIANA AVE
19F110596 10:41:38 43 DISTURBANCE 12XX FAYETTE DR
19F110606 10:41:59 EMS 50XX STELLHORN RD
19F110597 10:42:24 911 HANG UP 43XX MOORFIELD LN
19F110598 10:53:40 23,35 VAND VEH 71XX WHITE EAGLE DR
19F110600 11:00:08 51 THEFT 9XX HERMAN ST
19F110599 11:00:27 129 10XX FAYETTE DR
19F110601 11:03:55 63 CONTACT 18XX MARY ST
19F110602 11:06:26 22RC RECOVERY 25XX LYNN AVE
19F110603 11:16:07 111 ANIMAL INVE 47XX PALATINE DR
19F110604 11:19:42 23 VANDALISM 29XX GAY ST
19F110607 11:23:28 36 OCCUPIED VEH 315XX I 69 NB
19F110605 11:24:32 40A AUDIBLE 106XX HICKORY TREE CT
19F110608 11:26:11 63 CONTACT 42XX STRATHDON DR
19F110610 11:27:38 40A AUDIBLE 29XX GREENBRIAR DR
19F110609 11:27:54 25 PD ACCIDENT 66XX LIMA RD
19F110611 11:35:57 48 SUSPICIOUS 12XX BARTHOLD ST
19F110613 11:39:13 43 DISTURBANCE 38XX COLDWATER RD
19F110612 11:39:44 16,97 13XX ELIZA ST
19F110614 11:44:18 43 DISTURBANCE LEXINGTON CT & S CLINTON ST
19F110615 11:50:31 25HS HIT SKIP 40XX W JEFFERSON BLVD
19F110616 11:53:49 23IP VANDALISM 1XX E BERRY ST
19F110617 11:55:51 46,96 33XX CHEVIOT DR
19F110619 12:00:14 44LM 36XX HIAWATHA BLVD
19F110618 12:00:24 43 DISTURBANCE 21XX HOBSON RD
19F110622 12:06:27 63 CONTACT 40XX DALEWOOD DR
19F110620 12:10:03 23 VANDALISM 29XX GAY ST
19F110621 12:10:18 23 VANDALISM 29XX GAY ST
19F110623 12:11:29 46 DOMESTIC 65XX ALVAREZ DR
19F110626 12:15:54 EMS 15XX VANCE AVE
19F110624 12:19:39 911 HANG UP 63XX S ANTHONY BLVD
19F110625 12:20:13 48,36 NUTTMAN AVE & ARDMORE AVE
19F110627 12:22:04 33,34 ST JOE CENTER RD & REED RD
19F110628 12:32:39 22I JUV INVEST 49XX BAHAMA LN
19F110629 12:40:27 26 PI ACCIDENT FAIRINGTON DR & N CLINTON ST
19F110638 12:41:07 14 WARRANT 48XX SMITH ST
19F110631 12:42:24 22RC RECOVERY 64XX LIMA RD
19F110630 12:47:10 43 DISTURBANCE DREXEL AVE & EUCLID AVE
19F110632 12:50:49 103 UNWANTED 10XX CASS ST
19F110635 12:51:18 EMS 5XX FIFTH ST
19F110633 12:55:00 25 PD ACCIDENT 52XX W JEFFERSON BLVD
19F110634 12:57:22 51,ATTEMPTED 12XX E CREIGHTON AVE
19F110636 13:06:45 37 PARKING VIOL 81XX BECKETTS CT
19F110637 13:07:30 51 THEFT BROADWAY & GRACE AVE
19F110639 13:13:04 30 TRAFFIC STOP W DUPONT RD & LIMA RD
19F110640 13:13:59 23 VANDALISM 69XX WHITE EAGLE DR
19F110641 13:15:19 25 PD ACCIDENT MAGNAVOX WAY & ILLINOIS RD
19F110649 13:20:54 11C CAGE CAR 104XX MAYSVILLE RD
19F110642 13:21:31 39R STOLEN RECO 49XX BAHAMA LN
19F110643 13:31:54 25 PD ACCIDENT STELLHORN RD & MAYSVILLE RD
19F110645 13:34:37 22I JUV INVEST E LUDWIG RD & COLDWATER RD
19F110644 13:35:40 23,113 48XX SMITH ST
19F110646 13:42:27 40P PANIC ALARM 93XX AUBURN RD
19F110647 13:43:30 40 ALARM 49XX INVESTMENT DR
19F110653 13:45:08 108 FOLLOWUP 42XX COLDWATER RD
19F110648 13:49:18 44LM 3XX W MAPLE GROVE AVE
19F110651 13:52:42 911 HANG UP 2XX E ESSEX LN
19F110650 13:53:52 30 TRAFFIC STOP S LAFAYETTE ST & E TABER ST
19F110652 13:55:49 46 DOMESTIC 55XX RIVER RUN TRL
19F110654 14:00:51 46,96 6XX TENNESSEE AVE
19F110655 14:04:16 26 PI ACCIDENT 16XX SPY RUN AVE
19F110657 14:06:08 48 SUSPICIOUS 42XX OAKHURST DR
19F110656 14:07:21 22I JUV INVEST 12XX STOPHLET ST
19F110667 14:07:48 51 THEFT 61XX STELLHORN RD
19F110661 14:08:16 44LM 36XX HIAWATHA BLVD
19F110659 14:15:40 911 HANG UP 63XX S CALHOUN ST
19F110658 14:17:32 30 TRAFFIC STOP E TILLMAN RD & HESSEN CASSEL RD
19F110660 14:17:55 45 NEIGHBORHOOD 41XX REED ST
19F110662 14:20:55 44LM 32XX IONA LN
19F110664 14:22:58 39 STOLEN VEHIC 4XX VIOLET CT
19F110663 14:26:29 33,34 TAYLOR ST & NELSON ST
19F110666 14:29:27 46 DOMESTIC 100XX LIMA RD
19F110665 14:30:18 65A SUICIDE ATT 28XX JACOBS CREEK RUN
19F110668 14:32:10 46,96 64XX BLUFFTON RD
19F110669 14:37:19 51JO 11XX W STATE BLVD
19F110670 14:42:42 46 DOMESTIC 8XX W DEWALD ST
19F110671 14:57:08 25 PD ACCIDENT E FOURTH ST & N CLINTON ST
19F110672 14:57:51 51 THEFT 17XX E PAULDING RD
19F110685 15:01:35 96 BATTERY 62XX E STATE BLVD
19F110677 15:01:45 51 THEFT 70XX MANGROVE LN
19F110674 15:04:40 11C CAGE CAR XX E MAIN ST
19F110676 15:04:47 108 FOLLOWUP 2XX E TILLMAN RD
19F110673 15:06:24 129 42XX THORNGATE DR
19F110679 15:08:47 1 MEET XX E MAIN ST
19F110675 15:08:51 911 HANG UP 3XX W JEFFERSON BLVD
19F110678 15:12:54 103 UNWANTED 30XX W COLISEUM BLVD
19F110681 15:15:48 22I JUV INVEST 2XX LEXINGTON AVE
19F110680 15:17:33 129 46XX PARKERDALE DR
19F110683 15:22:10 46 DOMESTIC XX E MAIN ST
19F110682 15:23:31 43 DISTURBANCE 62XX W JEFFERSON BLVD
19F110684 15:23:49 43 DISTURBANCE 35XX S CALHOUN ST
19F110686 15:29:20 25 PD ACCIDENT BROADWAY & BLUFFTON RD
19F110687 15:39:55 43 DISTURBANCE 305XX I 69 NB
19F110688 15:40:45 30 TRAFFIC STOP ST JOE RD & ST JOE CENTER RD
19F110689 15:45:02 43 DISTURBANCE ST JOE CENTER RD & RIVER RUN TRL
19F110692 15:46:35 22RN RUNAWAY 28XX NORTHGATE BLVD
19F110691 15:49:50 43 DISTURBANCE 1XX W TILLMAN RD
19F110690 15:50:19 25 PD ACCIDENT 34XX BROADWAY
19F110694 15:55:57 51JO 14XX APPLE GLEN BLVD
19F110696 15:58:33 45 NEIGHBORHOOD 19XX EMERSON AVE
19F110695 15:58:54 65T SUICIDE THR 10XX W COLISEUM BLVD
19F110698 16:00:01 43 DISTURBANCE 104XX MAYSVILLE RD
19F110697 16:00:44 129 39XX KNIGHTWAY DR
19F110699 16:02:19 45 NEIGHBORHOOD 10XX LAKE AVE
19F110703 16:05:07 22RN RUNAWAY 34XX WEBSTER ST
19F110700 16:05:59 48,35 49XX SMITH ST
19F110701 16:06:07 40A AUDIBLE 29XX WESTBROOK DR
19F110702 16:13:55 911 HANG UP 56XX LOIS LN
19F110704 16:18:02 25 PD ACCIDENT DAYTON AVE & SOUTHWAYNE AVE
19F110707 16:18:31 102,TX THREATS XX E MAIN ST
19F110705 16:19:50 129 52XX HAMPSTEAD LN
19F110706 16:21:21 911 HANG UP 9XX WEBSTER ST
19F110708 16:28:51 46 DOMESTIC 22XX NORTHWAY DR
19F110709 16:30:51 34 TRAFF HAZARD W WAYNE ST & VAN BUREN ST
19F110711 16:37:30 22N CHILD NEGLE 47XX COLDWATER RD
19F110710 16:37:51 EMS 14XX NORTHLAND BLVD
19F110712 16:46:50 65T SUICIDE THR 10XX LAKE AVE
19F110714 16:48:06 25HS HIT SKIP 305XX I 69 SB
19F110713 16:49:34 30 TRAFFIC STOP COLDWATER RD & E ESSEX LN
19F110722 16:53:16 14S SERVING WAR 23XX SHADY BROOK DR
19F110717 16:57:10 46 DOMESTIC 1XX COUNTRY FOREST DR
19F110715 16:57:15 51JO 104XX MAYSVILLE RD
19F110716 16:57:29 25HS HIT SKIP 73XX S ANTHONY BLVD
19F110718 16:58:44 40A AUDIBLE 29XX W LUDWIG RD
19F110720 16:59:00 43 DISTURBANCE 74XX MAPLECREST RD
19F110719 16:59:59 51,35 13XX ST MARYS AVE
19F110721 17:02:53 22I JUV INVEST N CORNELL CIR & LEXINGTON AVE
19F110723 17:05:22 46,96 53XX COLDWATER RD
19F110725 17:06:26 25 PD ACCIDENT 42XX COLDWATER RD
19F110747 17:06:46 16,97 57XX COVENTRY LN
19F110724 17:10:35 25HS HIT SKIP 37XX ROBINWOOD DR
19F110726 17:11:45 46 DOMESTIC 21XX EDEN ST
19F110727 17:19:31 103 UNWANTED 14XX FARWOOD AVE
19F110728 17:20:52 43 DISTURBANCE WINTER ST & FISHER ST
19F110729 17:23:15 62 PARTY ARMED 13XX BOONE ST
19F110730 17:23:59 25HS HIT SKIP 37XX ROBINWOOD DR
19F110731 17:27:40 911 HANG UP 15XX FOLSOM LN
19F110733 17:28:45 51JO 12XX E CREIGHTON AVE
19F110732 17:29:07 25 PD ACCIDENT AUBURN RD & N CLINTON ST
19F110740 17:29:22 37 PARKING VIOL 12XX FERGUSON AVE
19F110734 17:30:52 33,34 LEY RD & LIMA RD
19F110736 17:35:54 1 MEET 24XX CASS ST
19F110735 17:37:28 22I JUV INVEST 21XX EDEN ST
19F110738 17:38:54 51IP S HANNA ST & E LEWIS ST
19F110737 17:39:26 23 VANDALISM 19XX OMEE CT
19F110739 17:40:46 99 NARCOTICS 39XX NEWPORT AVE
19F110741 17:42:33 48,36 104XX MAYSVILLE RD
19F110742 17:45:31 63 CONTACT 3XX E FLEMING AVE
19F110743 17:46:45 30 TRAFFIC STOP E PAULDING RD & NOLL AVE
19F110745 17:53:00 1 MEET 14XX KERRWAY CT
19F110744 17:53:17 22I JUV INVEST LEXINGTON AVE & N CORNELL CIR
19F110746 17:53:32 40A AUDIBLE 104XX CLAY SPRING PL
19F110748 18:00:07 108 FOLLOWUP 27XX HOAGLAND AVE
19F110749 18:07:28 51JO 14XX APPLE GLEN BLVD
19F110750 18:14:45 30 TRAFFIC STOP DISALLE BLVD & W COOK RD
19F110751 18:15:54 46,96 44XX STANDISH DR
19F110752 18:16:41 40 ALARM 8XX COTTAGE AVE
19F110753 18:17:55 30 TRAFFIC STOP ST JOE CENTER RD & MAPLECREST RD
19F110754 18:21:36 30 TRAFFIC STOP N CLINTON ST & E FOURTH ST
19F110755 18:33:38 48,35 53XX PLAZA DR
19F110756 18:37:44 20 PROBLEM UNK 24XX HOAGLAND AVE
19F110757 18:39:42 30 TRAFFIC STOP E PAULDING RD & WAYCROSS DR
19F110761 18:40:28 16,97 10XX W WASHINGTON BLVD
19F110758 18:43:31 33,34 N CLINTON ST & E COLISEUM BLVD
19F110759 18:45:08 23JO 63XX KENT RD
19F110760 18:47:58 43 DISTURBANCE 32XX MCKINNIE AVE
19F110766 18:47:58 22RC RECOVERY SMITH ST & BUCHANAN ST
19F110762 18:52:19 25HS HIT SKIP 28XX DUPONT COMMERCE CT
19F110763 18:56:35 40 ALARM 38XX SUPERIOR RIDGE DR
19F110764 18:56:50 55 FIGHT 2XX W LEITH ST
19F110765 18:59:26 30 TRAFFIC STOP 23XX LAKE AVE
19F110767 19:15:09 46 DOMESTIC 12XX HARMAR ST
19F110768 19:19:48 62 PARTY ARMED 9XX DREXEL AVE
19F110769 19:20:10 48 SUSPICIOUS 21XX ST MARYS AVE
19F110770 19:25:44 66 MENTALLY ILL 16XX HINTON DR
19F110771 19:30:41 62 PARTY ARMED SOUTHPARK DR & E PETTIT AVE
19F110780 19:33:50 28 DUI 14XX E TILLMAN RD
19F110772 19:43:14 65A SUICIDE ATT 1XX COUNTRY FOREST DR
19F110773 19:46:54 51,35 20XX EDITH AVE
19F110774 19:59:05 30 TRAFFIC STOP EVARD RD & SALGE DR
19F110776 20:01:31 46 DOMESTIC 40XX S HANNA ST
19F110784 20:01:37 22RN RUNAWAY 67XX RAINTREE RD
19F110775 20:03:29 1 MEET LUTHER ST & FLETCHER AVE
19F110777 20:03:55 30 TRAFFIC STOP FAIRFIELD AVE & MEYER AVE
19F110778 20:04:10 43,62 35XX W COLISEUM BLVD
19F110779 20:04:48 40A AUDIBLE 115XX BRIGADOON CT
19F110783 20:05:16 1 MEET XX E MAIN ST
19F110781 20:08:12 48 SUSPICIOUS 10XX N COLISEUM BLVD
19F110785 20:09:56 48 SUSPICIOUS 29XX SIMCOE DR
19F110782 20:12:21 30 TRAFFIC STOP 18XX BLUFFTON RD
19F110786 20:18:28 48 SUSPICIOUS 28XX DREXEL AVE
19F110788 20:23:28 25HS HIT SKIP TRIER RD & REED RD
19F110787 20:23:41 30 TRAFFIC STOP W COLISEUM BLVD & SHERMAN BLVD
19F110789 20:25:34 40 ALARM 98XX LIMA RD
19F110794 20:27:14 44LM 21XX HOBSON RD
19F110790 20:27:34 66 MENTALLY ILL 5XX W JEFFERSON BLVD
19F110791 20:35:15 30 TRAFFIC STOP W MAIN ST & S HARRISON ST
19F110792 20:35:27 30 TRAFFIC STOP LAKE AVE & BEACON ST
19F110793 20:38:39 43 DISTURBANCE 20XX CARTERTON DR
19F110795 20:42:01 30 TRAFFIC STOP CATALPA ST & BEADELL ST
19F110800 20:42:21 63 CONTACT 11XX OSAGE ST
19F110796 20:42:22 46,96 8XX RIDGEWOOD DR
19F110797 20:49:18 46,96 37XX ANDOVER PL
19F110798 20:50:53 43 DISTURBANCE 36XX S HANNA ST
19F110799 20:52:16 101 OPEN DOOR 10XX E COOK RD
19F110804 20:55:22 11C CAGE CAR 53XX COLDWATER RD
19F110801 20:56:12 25HS HIT SKIP 3XX CENTER ST
19F110802 21:00:33 48 SUSPICIOUS 47XX S ANTHONY BLVD
19F110803 21:01:10 102 THREATS 22XX VANCE AVE
19F110805 21:10:17 46 DOMESTIC 31XX WINTER ST
19F110806 21:13:45 48 SUSPICIOUS 19XX BROADWAY
19F110808 21:15:34 40A AUDIBLE 7XX W COLISEUM BLVD
19F110807 21:15:59 65T SUICIDE THR 5XX W JEFFERSON BLVD
19F110809 21:18:25 46 DOMESTIC 74XX BAYLOR DR
19F110810 21:19:32 96 BATTERY 23XX POINT WEST DR
19F110811 21:21:15 33,34 PARNELL AVE & ST JOE RIVER DR
19F110812 21:29:49 25 PD ACCIDENT E PETTIT AVE & S ANTHONY BLVD
19F110813 21:31:21 46 DOMESTIC 21XX LEGOMA DR
19F110819 21:31:21 102,TX THREATS 3XX KILLEA ST
19F110814 21:37:51 46,62 4XX E CREIGHTON AVE
19F110815 21:44:40 30 TRAFFIC STOP LIMA RD & LEY RD
19F110816 21:47:55 34 TRAFF HAZARD 34XX PARNELL AVE
19F110817 21:54:04 30 TRAFFIC STOP LIMA RD & W LUDWIG RD
19F110818 21:55:43 30 TRAFFIC STOP S LAFAYETTE ST & E PAULDING RD
19F110820 22:00:23 33,34 BLUFFTON RD & WINCHESTER RD
19F110821 22:01:51 27 RECKLESS DRI ST JOE RD & ROEBUCK BLVD
19F110822 22:09:03 33 DISABLED VEH 17XX W COLISEUM BLVD
19F110823 22:16:40 30 TRAFFIC STOP WERLING DR & E PETTIT AVE
19F110824 22:19:16 30 TRAFFIC STOP E CREIGHTON AVE & S HANNA ST
19F110827 22:21:34 30 TRAFFIC STOP SR 3 & CARROLL RD
19F110825 22:22:01 50IP BURG I/P 44XX BOWSER AVE
19F110826 22:23:29 48 SUSPICIOUS RUNNION AVE & HIGH ST
19F110828 22:36:42 15 ASSIST LEESBURG RD & W MAIN ST
19F110829 22:41:00 65T SUICIDE THR 16XX HINTON DR
19F110830 22:49:47 43 DISTURBANCE 26XX MARCY LN
19F110831 23:04:16 22I JUV INVEST 31XX S HARRISON ST
19F110832 23:05:35 43 DISTURBANCE 26XX STARDALE DR
19F110833 23:11:52 41 MAN DOWN TAYLOR ST & BROOKSIDE ST
19F110834 23:15:45 33,34 GOSHEN RD & I 69 309 NB ON RAMP
19F110835 23:16:52 30 TRAFFIC STOP ST JOE RD & DEAN DR
19F110836 23:17:15 48,36 70XX LEMAR DR
19F110837 23:18:30 30 TRAFFIC STOP E STATE BLVD & N COLISEUM BLVD
19F110838 23:23:28 33,34 LIMA RD & W COLISEUM BLVD
19F110839 23:23:34 30 TRAFFIC STOP E STATE BLVD & N COLISEUM BLVD
19F110847 23:32:20 99 NARCOTICS 25XX FARNSWORTH DR
19F110840 23:33:52 30 TRAFFIC STOP MCKINNIE AVE & MCMILLEN PARK DR
19F110841 23:36:08 48 SUSPICIOUS 12XX MAPLE AVE
19F110842 23:37:57 48,36 64XX ST JOE RD
19F110843 23:38:18 30 TRAFFIC STOP TAYLOR ST & BROADWAY
19F110845 23:40:03 40A AUDIBLE 62XX E STATE BLVD
19F110844 23:43:01 51 THEFT 103XX DAWSONS CREEK BLVD
19F110846 23:50:19 46 DOMESTIC 9XX BAXTER ST
19F110848 23:59:52 62 PARTY ARMED 6XX LAWTON PL